| time (UTC) | temp F | wind direction | speed knots | gust knots | rain 1hr in | rain 24hr in | rain mn in | humidity % | barometer mb |
| 20260510071536 | 58 | 165 | 0.9 | 4.3 | 0.00 | 0.01 | 0.01 | 60 | 1028.1 |
| 20260510070036 | 59 | 0 | 0.0 | 2.6 | 0.00 | 0.00 | 0.00 | 59 | 1028.1 |
| 20260510064536 | 59 | 165 | 0.0 | 1.7 | 0.00 | 0.00 | 0.00 | 58 | 1028.1 |
| 20260510063039 | 59 | 0 | 0.0 | 0.0 | 0.00 | 0.00 | 0.00 | 58 | 1027.9 |
| 20260510061538 | 60 | 0 | 0.0 | 0.9 | 0.00 | 0.00 | 0.00 | 57 | 1027.9 |
| 20260510060047 | 60 | 0 | 0.0 | 1.7 | 0.00 | 0.00 | 0.00 | 58 | 1027.8 |
| 20260510054533 | 60 | 0 | 0.0 | 3.5 | 0.00 | 0.00 | 0.00 | 57 | 1027.8 |
| 20260510053041 | 60 | 0 | 0.0 | 5.2 | 0.00 | 0.00 | 0.00 | 57 | 1027.8 |
| 20260510051545 | 60 | 166 | 1.7 | 5.2 | 0.00 | 0.00 | 0.00 | 57 | 1027.7 |
| 20260510050037 | 60 | 0 | 1.7 | 6.1 | 0.00 | 0.00 | 0.00 | 57 | 1027.8 |
| 20260510044538 | 60 | 0 | 0.0 | 5.2 | 0.00 | 0.00 | 0.00 | 56 | 1027.8 |
| 20260510043049 | 60 | 0 | 0.0 | 3.5 | 0.00 | 0.00 | 0.00 | 56 | 1028.0 |
| 20260510041537 | 60 | 192 | 0.0 | 3.5 | 0.00 | 0.00 | 0.00 | 60 | 1028.0 |
| 20260510040036 | 59 | 0 | 0.9 | 3.5 | 0.00 | 0.00 | 0.00 | 59 | 1027.9 |
| 20260510034543 | 58 | 0 | 0.0 | 2.6 | 0.00 | 0.00 | 0.00 | 60 | 1028.2 |
| 20260510033040 | 58 | 0 | 0.0 | 3.5 | 0.00 | 0.00 | 0.00 | 60 | 1028.2 |
| 20260510031605 | 59 | 0 | 0.9 | 2.6 | 0.00 | 0.02 | 0.00 | 60 | 1028.3 |
| 20260510030038 | 59 | 0 | 0.9 | 4.3 | 0.00 | 0.02 | 0.00 | 57 | 1028.3 |
| 20260510024538 | 58 | 196 | 0.0 | 3.5 | 0.00 | 0.02 | 0.00 | 59 | 1028.6 |
| 20260510023045 | 58 | 197 | 0.0 | 3.5 | 0.00 | 0.02 | 0.00 | 59 | 1028.9 |
| 20260510021542 | 57 | 0 | 0.0 | 2.6 | 0.00 | 0.02 | 0.00 | 59 | 1029.1 |
| 20260510020037 | 56 | 0 | 0.0 | 0.0 | 0.00 | 0.02 | 0.00 | 60 | 1029.2 |
| 20260510014538 | 56 | 0 | 0.0 | 0.0 | 0.00 | 0.02 | 0.00 | 60 | 1029.4 |
| 20260510013038 | 56 | 0 | 0.0 | 2.6 | 0.00 | 0.02 | 0.00 | 62 | 1029.5 |
| 20260510011553 | 54 | 0 | 0.0 | 3.5 | 0.00 | 0.02 | 0.00 | 64 | 1029.4 |
| 20260510010044 | 54 | 0 | 0.0 | 0.0 | 0.00 | 0.02 | 0.00 | 67 | 1029.4 |
| 20260510004538 | 54 | 0 | 0.0 | 0.0 | 0.00 | 0.02 | 0.00 | 69 | 1029.3 |
| 20260510003038 | 53 | 197 | 0.9 | 2.6 | 0.00 | 0.02 | 0.00 | 69 | 1029.4 |
| 20260510001537 | 53 | 0 | 0.0 | 2.6 | 0.00 | 0.02 | 0.00 | 69 | 1029.5 |
| 20260510000037 | 52 | 0 | 0.0 | 1.7 | 0.00 | 0.02 | 0.00 | 70 | 1029.5 |
| 20260509234536 | 52 | 0 | 0.0 | 0.0 | 0.00 | 0.02 | 0.00 | 70 | 1029.4 |
| 20260509233037 | 52 | 0 | 0.0 | 3.5 | 0.00 | 0.02 | 0.00 | 70 | 1029.6 |
| 20260509231539 | 52 | 0 | 0.0 | 0.0 | 0.00 | 0.02 | 0.00 | 70 | 1029.5 |
| 20260509230037 | 52 | 0 | 0.0 | 4.3 | 0.00 | 0.02 | 0.00 | 70 | 1029.4 |
| 20260509224533 | 52 | 199 | 0.0 | 3.5 | 0.00 | 0.02 | 0.00 | 69 | 1029.3 |
| 20260509223037 | 52 | 0 | 0.0 | 0.0 | 0.00 | 0.02 | 0.00 | 70 | 1029.2 |
| 20260509221539 | 52 | 0 | 0.0 | 0.0 | 0.00 | 0.03 | 0.00 | 69 | 1028.9 |
| 20260509220044 | 52 | 0 | 0.0 | 0.0 | 0.00 | 0.03 | 0.00 | 69 | 1028.8 |
| 20260509214537 | 51 | 0 | 0.0 | 0.0 | 0.00 | 0.03 | 0.00 | 69 | 1028.6 |
| 20260509213049 | 51 | 0 | 0.0 | 0.0 | 0.00 | 0.03 | 0.00 | 69 | 1028.4 |
| 20260509211605 | 51 | 0 | 0.0 | 0.0 | 0.00 | 0.03 | 0.00 | 69 | 1028.3 |
| 20260509210037 | 51 | 0 | 0.0 | 0.0 | 0.00 | 0.03 | 0.00 | 69 | 1028.3 |
| 20260509204544 | 51 | 0 | 0.0 | 0.0 | 0.00 | 0.03 | 0.00 | 69 | 1028.2 |
| 20260509203042 | 51 | 0 | 0.0 | 0.0 | 0.00 | 0.03 | 0.00 | 69 | 1028.1 |
| 20260509201537 | 51 | 0 | 0.0 | 1.7 | 0.00 | 0.04 | 0.00 | 69 | 1028.1 |
| 20260509200035 | 51 | 0 | 0.9 | 5.2 | 0.00 | 0.04 | 0.00 | 69 | 1027.9 |
| 20260509194539 | 51 | 0 | 0.0 | 0.0 | 0.00 | 0.04 | 0.00 | 69 | 1027.8 |
| 20260509193036 | 51 | 0 | 0.0 | 0.0 | 0.00 | 0.04 | 0.00 | 69 | 1027.7 |
| 20260509191537 | 51 | 0 | 0.0 | 0.0 | 0.00 | 0.04 | 0.00 | 68 | 1027.6 |
| 20260509190045 | 51 | 0 | 0.0 | 0.0 | 0.00 | 0.04 | 0.00 | 68 | 1027.5 |
| 20260509184535 | 51 | 0 | 0.0 | 0.0 | 0.00 | 0.04 | 0.00 | 68 | 1027.3 |
| 20260509183037 | 51 | 0 | 0.0 | 0.0 | 0.00 | 0.04 | 0.00 | 68 | 1027.2 |
| 20260509181534 | 51 | 0 | 0.0 | 0.0 | 0.00 | 0.04 | 0.00 | 68 | 1027.2 |
| 20260509180041 | 51 | 0 | 0.0 | 0.0 | 0.00 | 0.04 | 0.00 | 68 | 1027.2 |
| 20260509174536 | 51 | 0 | 0.0 | 0.0 | 0.00 | 0.04 | 0.00 | 68 | 1026.9 |
| 20260509173037 | 51 | 0 | 0.0 | 0.0 | 0.00 | 0.04 | 0.00 | 67 | 1027.0 |
| 20260509171538 | 51 | 0 | 0.0 | 2.6 | 0.00 | 0.04 | 0.00 | 67 | 1027.0 |
| 20260509170037 | 51 | 202 | 0.9 | 1.7 | 0.00 | 0.04 | 0.00 | 67 | 1027.2 |
| 20260509164536 | 51 | 202 | 0.9 | 2.6 | 0.00 | 0.04 | 0.00 | 67 | 1027.3 |
| 20260509163048 | 52 | 202 | 0.9 | 3.5 | 0.00 | 0.04 | 0.00 | 67 | 1027.4 |
| 20260509161540 | 52 | 202 | 0.0 | 2.6 | 0.00 | 0.04 | 0.00 | 67 | 1027.6 |
| 20260509160039 | 52 | 0 | 0.0 | 0.0 | 0.00 | 0.04 | 0.00 | 67 | 1027.5 |
| 20260509154537 | 52 | 0 | 0.0 | 0.0 | 0.00 | 0.04 | 0.00 | 66 | 1027.5 |
| 20260509153036 | 52 | 0 | 0.0 | 0.0 | 0.00 | 0.04 | 0.00 | 66 | 1027.5 |
| 20260509151536 | 52 | 0 | 0.0 | 0.0 | 0.00 | 0.04 | 0.00 | 66 | 1027.6 |
| 20260509150038 | 52 | 0 | 0.0 | 0.0 | 0.00 | 0.04 | 0.00 | 66 | 1027.7 |
| 20260509144537 | 52 | 0 | 0.0 | 0.0 | 0.00 | 0.04 | 0.00 | 66 | 1027.8 |
| 20260509143037 | 52 | 0 | 0.0 | 0.0 | 0.00 | 0.03 | 0.00 | 66 | 1027.8 |
| 20260509141537 | 52 | 0 | 0.0 | 0.0 | 0.00 | 0.03 | 0.03 | 65 | 1027.8 |
| 20260509140039 | 52 | 0 | 0.0 | 0.0 | 0.00 | 0.03 | 0.03 | 65 | 1027.8 |
| 20260509134541 | 52 | 0 | 0.0 | 2.6 | 0.00 | 0.03 | 0.03 | 65 | 1027.8 |
| 20260509133042 | 52 | 0 | 0.0 | 0.0 | 0.00 | 0.03 | 0.03 | 65 | 1027.8 |
| 20260509131537 | 52 | 0 | 0.0 | 0.0 | 0.00 | 0.03 | 0.03 | 65 | 1027.9 |
| 20260509130037 | 52 | 0 | 0.0 | 0.0 | 0.00 | 0.03 | 0.03 | 65 | 1028.2 |
| 20260509124538 | 52 | 0 | 0.0 | 0.0 | 0.00 | 0.03 | 0.03 | 65 | 1028.1 |
| 20260509123037 | 52 | 0 | 0.0 | 0.0 | 0.00 | 0.03 | 0.03 | 64 | 1028.1 |
| 20260509121539 | 52 | 0 | 0.0 | 0.0 | 0.00 | 0.03 | 0.03 | 64 | 1028.2 |
| 20260509120038 | 52 | 0 | 0.0 | 0.0 | 0.00 | 0.03 | 0.03 | 64 | 1028.1 |
| 20260509114543 | 52 | 0 | 0.0 | 0.0 | 0.00 | 0.03 | 0.03 | 64 | 1028.0 |
| 20260509113036 | 52 | 0 | 0.0 | 0.0 | 0.00 | 0.03 | 0.03 | 64 | 1028.1 |
| 20260509111536 | 52 | 0 | 0.0 | 0.0 | 0.00 | 0.03 | 0.03 | 63 | 1028.1 |
| 20260509110033 | 52 | 0 | 0.0 | 0.0 | 0.00 | 0.03 | 0.03 | 63 | 1028.2 |
| 20260509104538 | 52 | 0 | 0.0 | 0.0 | 0.00 | 0.03 | 0.03 | 63 | 1028.3 |
| 20260509103036 | 53 | 0 | 0.0 | 0.0 | 0.00 | 0.03 | 0.03 | 63 | 1028.2 |
| 20260509101538 | 53 | 0 | 0.0 | 0.0 | 0.00 | 0.03 | 0.03 | 63 | 1028.2 |
| 20260509100038 | 53 | 0 | 0.0 | 1.7 | 0.00 | 0.03 | 0.03 | 62 | 1028.2 |
| 20260509094538 | 53 | 0 | 0.0 | 0.0 | 0.00 | 0.03 | 0.03 | 62 | 1028.2 |
| 20260509093038 | 53 | 0 | 0.0 | 0.0 | 0.00 | 0.03 | 0.03 | 62 | 1028.2 |
| 20260509091538 | 54 | 0 | 0.0 | 0.0 | 0.00 | 0.03 | 0.03 | 62 | 1028.2 |
| 20260509090035 | 54 | 0 | 0.0 | 1.7 | 0.00 | 0.03 | 0.03 | 62 | 1028.2 |
| 20260509084540 | 54 | 0 | 0.0 | 1.7 | 0.00 | 0.03 | 0.03 | 61 | 1028.2 |
| 20260509083036 | 55 | 0 | 0.0 | 3.5 | 0.00 | 0.03 | 0.03 | 61 | 1028.1 |
| 20260509081537 | 55 | 0 | 0.0 | 0.9 | 0.00 | 0.03 | 0.03 | 61 | 1028.0 |
| 20260509080053 | 55 | 0 | 0.0 | 0.0 | 0.00 | 0.03 | 0.03 | 61 | 1027.8 |
| 20260509074538 | 56 | 0 | 0.0 | 0.0 | 0.00 | 0.03 | 0.03 | 61 | 1027.7 |
| 20260509073110 | 56 | 0 | 0.0 | 0.0 | 0.00 | 0.03 | 0.03 | 61 | 1027.7 |